Regional Weather Roundup
Issued by NWS New Orleans/Baton Rouge, LA

Home | Current Version | Previous Version | Text Only | Print | Product List | Glossary On
Versions: 1 2 3 4 5 6 7 8 9 10 11 12 13 14 15 16 17 18 19 20 21 22 23 24 25 26 27
000
ASUS44 KLIX 192214
RWRLIX
NEW ORLEANS REGIONAL WEATHER ROUNDUP
NATIONAL WEATHER SERVICE NEW ORLEANS LA
500 PM CDT THU OCT 19 2017

NOTE: "FAIR" INDICATES FEW OR NO CLOUDS BELOW 12,000 FEET WITH NO
      SIGNIFICANT WEATHER AND/OR OBSTRUCTIONS TO VISIBILITY.
      SKY/WX - SKY CONDITION AND SIGNIFICANT WEATHER.
      TMP - AIR TEMPERATURE.     DP    - DEWPOINT TEMPERATURE.
      RH  - RELATIVE HUMIDITY.   PRES  - PRESSURE.
      HI  - HEAT INDEX.          WCI   - WIND CHILL INDEX.

*  THESE STATIONS ARE NOT NWS OR FAA STATIONS AND ARE NOT UNDER
   NWS QUALITY CONTROL.

LAZ038-040-048-061>063-065>067-069-192300-
SOUTHEAST LOUISIANA

CITY           SKY/WX    TMP DP  RH WIND       PRES   REMARKS
N.O. INTL ARPT PTSUNNY   80  66  62 E20       30.12S
N.O. LAKEFRONT SUNNY     79  66  64 E14       30.13S
N.O. DOWNTOWN*   N/A     79  65  62 VRB7      30.13F
RESERVE*         N/A     83  66  57 E8        30.12S
SLIDELL        SUNNY     81  64  56 SE8       30.12S
BATON ROUGE    MOSUNNY   81  61  50 E7        30.11S
BOOTHVILLE     LGT RAIN  82  69  64 E17G24    30.12S
BELLE CHASSE   PTSUNNY   82  68  63 E12G18    30.12F
BOGALUSA*        N/A     81  59  45 SE3       30.15S
GALLIANO*      MOCLDY    79  67  68 E10G17    30.11S
NEW ROADS*       N/A     80  62  54 NE5       30.12F
GONZALES*        N/A     82  62  50 E9        30.11S
HAMMOND*       MOSUNNY   81  63  54 SE10      30.12S
HOUMA*         MOSUNNY   81  72  74 E17       30.11S
PORT FOURCHON* NOT AVBL

$$

MSZ070-080>082-192300-
SOUTHERN MISSISSIPPI

CITY           SKY/WX    TMP DP  RH WIND       PRES   REMARKS
MCCOMB         CLOUDY    81  58  45 VRB6      30.14F
GULFPORT       SUNNY     79  65  62 SE12      30.13S
BILOXI         SUNNY     78  64  61 SE12      30.13S
PASCAGOULA     MOSUNNY   81  58  45 NE6       30.13F
STENNIS ARPT*  MOSUNNY   77  64  65 SE9       30.14S

$$

COASTAL OBSERVATIONS
LAKE AND NEARSHORE STATIONS

STATION/POSITION TIME  TEMP    WIND        PRES    WAVE
                       AIR SEA DIR/SP/G            HT/PER
                 (UTC) (F)     (DEG/KT/KT) (MB)    (FT/S)
PASCAGOULA       2142   81      90/  8/ 10 1020.0
WAVELAND YACHT   2142   76 74  130/ 11/ 14 1020.4
GRAND ISLE       2142   79 76   90/ 14/ 20 1019.5
NEW CANAL        2142   78 76   80/ 11/ 15 1019.9
SHELL BEACH      2142   76 77   80/ 15/ 18 1020.2

OFFSHORE STATIONS

STATION/POSITION TIME  TEMP    WIND        PRES    WAVE
                       AIR SEA DIR/SP/G            HT/PER
                 (UTC) (F)     (DEG/KT/KT) (MB)    (FT/S)
64 S DAUPHIN ISL 2150   78 82   70/ 16/ 19 1019.8    6/ 7

$$





USA.gov is the U.S. government's official web portal to all federal, state and local government web resources and services.